LEMUR-2-MORAG (44403 NORAD) Tracking and Keplerian Element Data
This shows tracking and keplerian element data for the satellite.
Feedback or suggestion? Click here.
Element | Value |
Catalog | 44403 |
Name | LEMUR-2-MORAG |
Epoch Orbit | 429 |
Epoch Day | 214.89452944 |
Epoch Year | 2019 |
RAAN | 176.2897 |
Inclination | 97.4928 |
Eccentricity | 0.0024695 |
Argument of Perigee | 147.4874 |
Mean Anonmoly | 212.7883 |
Mean Motion | 15.11768911 |
Decay Rate | 8.69E-06 |
L1 | 1 44403U 19038T 19214.89452944 .00000869 00000-0 54401-4 0 9999 |
L2 | 2 44403 97.4928 176.2897 0024695 147.4874 212.7883 15.11768911 4293 |
Live tracking and technical data element details for LEMUR-2-MORAG (NORAD 44403). LEMUR-2-MORAG can be tracked NOW for your location showing map with azimuth and elevation plus other details from your city location.
Track the satellite on the map from your city or location and see movement details for azimuth, elevation, latitude, longitude, range, height, and movement on the map or in text.
IsCatalogInMostPopularTable: catalog: 44403, numindb: 16
Update: records affected: 1
GetName: 44403 LEMUR-2-MORAG
Hit Count: updated at: Thu, 05 Dec 2019 17:52:02 GMT